Regional Weather Roundup
Issued by NWS

Home | Current Version | Previous Version | Text Only | Print | Product List | Glossary On
Versions: 1 2 3 4 5 6 7 8 9 10 11 12 13 14 15 16 17 18 19 20 21 22 23 24 25 26 27 28 29 30 31 32 33 34 35 36 37 38 39 40 41 42 43 44 45 46 47 48 49 50
000
ASCA42 TJSJ 271210
RWRPR
PUERTO RICO/U.S. VIRGIN ISLANDS HOURLY WEATHER ROUNDUP
NATIONAL WEATHER SERVICE SAN JUAN PR
800 AM AST MON MAR 27 2017

PRZ001>002-007>008-010-271300-
PUERTO RICO

CITY           SKY/WX    TMP DP  RH WIND       PRES   REMARKS
SAN JUAN LMM   MOSUNNY   79  73  83 S3        29.93R
AGUADILLA      PTSUNNY   77  72  83 SW7       29.94R
CEIBA          PTSUNNY   79  75  89 S8        29.95R
$$

VIZ001>002-271300-
U.S. VIRGIN ISLANDS

CITY           SKY/WX    TMP DP  RH WIND       PRES   REMARKS
CHARLOTTE AMA  MOSUNNY   79  73  83 SE12      29.94R
CHRISTIANSTED  MOSUNNY   81  72  74 SE8       29.96R
$$

HOURLY WEATHER ROUNDUP FOR THE NEWS MEDIA

CITY           SKY/WX    TMP DP  RH WIND       PRES   REMARKS
ORLANDO        CLEAR     63  61  93 CALM      30.11R
NEW YORK       DRZL/FOG  43  43 100 E9        30.13F VSB<1/4
NEWARK         DRZL/FOG  41  40  96 VRB5      30.12F VSB 1/4
CHICAGO        CLOUDY    49  47  93 W3        29.92R FOG
HARTFORD       CLOUDY    42  38  85 E10G17    30.19F
BOSTON         LGT RAIN  38  38 100 E13       30.22F VSB 1/2 WCI  30
DALLAS         CLOUDY    65  51  60 NW12      29.83R
PHILADELPHIA   LGT RAIN  44  43  96 NE3       30.11S VSB 1
LOS ANGELES    PTCLDY    54  52  93 NE3       30.01S
WASHINGTON DC  FOG       47  46  97 CALM      30.09R VSB 1/2


USA.gov is the U.S. government's official web portal to all federal, state and local government web resources and services.